When you browse on this site, cookies collect data to enhance your experience and personalize the content and advertising you see.
Visit our Privacy Policy to learn more. By continuing to use the site, you agree to this use of cookies and data.

Météo par heure à Naftalan

Ce jour, 13 Août, Jeudi

Heure Température Précipitation Vent Pression Humidité
00:00 +26°C° 0 mm 2 m/s 760 mmHg 57%
01:00 +25°C° 0 mm 2 m/s 760 mmHg 59%
02:00 +25°C° 0 mm 2 m/s 760 mmHg 61%
03:00 +25°C° 0 mm 2 m/s 760 mmHg 62%
04:00 +25°C° 0 mm 2 m/s 760 mmHg 61%
05:00 +26°C° 0 mm 2 m/s 760 mmHg 60%
06:00 +26°C° 0 mm 2 m/s 760 mmHg 59%
07:00 +27°C° 0 mm 2 m/s 760 mmHg 55%
08:00 +28°C° 0 mm 2 m/s 759 mmHg 50%
09:00 +30°C° 0 mm 2 m/s 759 mmHg 45%
10:00 +30°C° 0 mm 2 m/s 759 mmHg 43%
11:00 +31°C° 0 mm 3 m/s 759 mmHg 42%
12:00 +33°C° 0 mm 4 m/s 759 mmHg 40%
13:00 +33°C° 0 mm 4 m/s 758 mmHg 40%
14:00 +33°C° 0 mm 4 m/s 757 mmHg 40%
15:00 +32°C° 0 mm 4 m/s 757 mmHg 39%
16:00 +32°C° 0 mm 4 m/s 757 mmHg 42%
17:00 +30°C° 0 mm 3 m/s 757 mmHg 45%
18:00 +29°C° 0 mm 3 m/s 758 mmHg 48%
19:00 +28°C° 0 mm 2 m/s 758 mmHg 52%
20:00 +27°C° 0 mm 2 m/s 758 mmHg 56%
21:00 +26°C° 0 mm 1 m/s 758 mmHg 61%
22:00 +26°C° 0 mm 1 m/s 758 mmHg 62%
23:00 +24°C° 0 mm 0 m/s 758 mmHg 63%

Demain, 14 Août, Vendredi

Heure Température Précipitation Vent Pression Humidité
00:00 +23°C° 0 mm 0 m/s 758 mmHg 65%
01:00 +25°C° 0 mm 1 m/s 758 mmHg 63%
02:00 +25°C° 0 mm 1 m/s 758 mmHg 62%
03:00 +25°C° 0 mm 2 m/s 758 mmHg 61%
04:00 +25°C° 0 mm 2 m/s 758 mmHg 59%
05:00 +26°C° 0 mm 2 m/s 758 mmHg 57%
06:00 +26°C° 0 mm 2 m/s 759 mmHg 55%
07:00 +28°C° 0 mm 3 m/s 759 mmHg 50%
08:00 +29°C° 0 mm 5 m/s 758 mmHg 45%
09:00 +32°C° 0 mm 6 m/s 758 mmHg 40%
10:00 +33°C° 0 mm 7 m/s 758 mmHg 40%
11:00 +33°C° 0 mm 7 m/s 758 mmHg 40%
12:00 +34°C° 0 mm 8 m/s 757 mmHg 40%
13:00 +34°C° 0 mm 7 m/s 757 mmHg 40%
14:00 +33°C° 0 mm 7 m/s 757 mmHg 41%
15:00 +33°C° 0 mm 7 m/s 756 mmHg 41%
16:00 +32°C° 0 mm 6 m/s 756 mmHg 45%
17:00 +30°C° 0 mm 6 m/s 756 mmHg 49%
18:00 +30°C° 0 mm 5 m/s 756 mmHg 52%
19:00 +29°C° 0 mm 5 m/s 757 mmHg 57%
20:00 +28°C° 0 mm 4 m/s 757 mmHg 61%
21:00 +27°C° 0 mm 3 m/s 757 mmHg 66%
22:00 +27°C° 0 mm 3 m/s 757 mmHg 66%
23:00 +26°C° 0 mm 3 m/s 757 mmHg 67%

Après-demain, 15 Août, Samedi

Heure Température Précipitation Vent Pression Humidité
00:00 +26°C° 0 mm 4 m/s 757 mmHg 67%
01:00 +26°C° 0 mm 4 m/s 757 mmHg 67%
02:00 +26°C° 0 mm 5 m/s 757 mmHg 67%
03:00 +26°C° 0 mm 6 m/s 757 mmHg 66%
04:00 +26°C° 0 mm 6 m/s 757 mmHg 64%
05:00 +26°C° 0 mm 6 m/s 757 mmHg 62%
06:00 +26°C° 0 mm 6 m/s 757 mmHg 60%
07:00 +27°C° 0 mm 7 m/s 758 mmHg 54%
08:00 +29°C° 0 mm 7 m/s 758 mmHg 47%
09:00 +31°C° 0 mm 8 m/s 758 mmHg 41%
10:00 +31°C° 0 mm 10 m/s 759 mmHg 43%
11:00 +31°C° 0 mm 11 m/s 759 mmHg 46%
12:00 +31°C° 0 mm 12 m/s 759 mmHg 48%
13:00 +31°C° 0 mm 12 m/s 759 mmHg 49%
14:00 +29°C° 0 mm 12 m/s 759 mmHg 50%
15:00 +29°C° 0 mm 12 m/s 760 mmHg 51%
16:00 +28°C° 0 mm 11 m/s 760 mmHg 55%
17:00 +27°C° 0 mm 9 m/s 760 mmHg 58%
18:00 +26°C° 0 mm 8 m/s 760 mmHg 62%
19:00 +26°C° 0 mm 7 m/s 761 mmHg 64%
20:00 +24°C° 0 mm 6 m/s 761 mmHg 67%
21:00 +25°C° 0 mm 5 m/s 761 mmHg 70%
22:00 +25°C° 0 mm 5 m/s 761 mmHg 70%
23:00 +23°C° 0 mm 4 m/s 761 mmHg 70%

16 Août, Dimanche

Heure Température Précipitation Vent Pression Humidité
00:00 +23°C° 0 mm 4 m/s 761 mmHg 70%
01:00 +23°C° 0 mm 4 m/s 761 mmHg 70%
02:00 +24°C° 0 mm 3 m/s 761 mmHg 69%
03:00 +24°C° 0 mm 3 m/s 761 mmHg 68%
04:00 +24°C° 0 mm 3 m/s 761 mmHg 67%
05:00 +25°C° 0 mm 4 m/s 761 mmHg 65%
06:00 +25°C° 0 mm 4 m/s 761 mmHg 64%
07:00 +26°C° 0 mm 4 m/s 761 mmHg 62%
08:00 +26°C° 0 mm 5 m/s 761 mmHg 60%
09:00 +27°C° 0 mm 5 m/s 761 mmHg 58%
10:00 +28°C° 0 mm 5 m/s 761 mmHg 55%
11:00 +28°C° 0 mm 5 m/s 761 mmHg 52%
12:00 +29°C° 0 mm 5 m/s 761 mmHg 49%
13:00 +29°C° 0 mm 5 m/s 761 mmHg 50%
14:00 +29°C° 0 mm 5 m/s 761 mmHg 50%
15:00 +29°C° 0 mm 5 m/s 760 mmHg 50%
16:00 +28°C° 0 mm 5 m/s 760 mmHg 53%
17:00 +28°C° 0 mm 4 m/s 760 mmHg 55%
18:00 +27°C° 0 mm 4 m/s 760 mmHg 57%
19:00 +27°C° 0 mm 4 m/s 760 mmHg 59%
20:00 +26°C° 0 mm 3 m/s 761 mmHg 60%
21:00 +25°C° 0 mm 3 m/s 761 mmHg 62%
22:00 +25°C° 0 mm 3 m/s 761 mmHg 61%
23:00 +25°C° 0 mm 3 m/s 761 mmHg 60%

17 Août, Lundi

Heure Température Précipitation Vent Pression Humidité
00:00 +25°C° 0 mm 3 m/s 761 mmHg 59%
01:00 +24°C° 0 mm 3 m/s 761 mmHg 60%
02:00 +24°C° 0 mm 3 m/s 761 mmHg 61%
03:00 +24°C° 0 mm 3 m/s 761 mmHg 62%
04:00 +25°C° 0 mm 4 m/s 761 mmHg 64%
05:00 +25°C° 0 mm 4 m/s 761 mmHg 65%
06:00 +26°C° 0 mm 4 m/s 761 mmHg 66%
07:00 +26°C° 0.2 mm 5 m/s 762 mmHg 65%
08:00 +26°C° 0.2 mm 6 m/s 762 mmHg 64%
09:00 +26°C° 0.2 mm 7 m/s 763 mmHg 63%
10:00 +27°C° 0.2 mm 7 m/s 763 mmHg 62%
11:00 +27°C° 0.2 mm 8 m/s 763 mmHg 61%
12:00 +27°C° 0.2 mm 8 m/s 763 mmHg 60%
13:00 +27°C° 0 mm 7 m/s 763 mmHg 58%
14:00 +27°C° 0 mm 7 m/s 763 mmHg 57%
15:00 +27°C° 0 mm 6 m/s 763 mmHg 55%
16:00 +27°C° 0 mm 6 m/s 763 mmHg 56%
17:00 +26°C° 0 mm 5 m/s 763 mmHg 56%
18:00 +26°C° 0 mm 4 m/s 763 mmHg 57%
19:00 +26°C° 0 mm 4 m/s 763 mmHg 58%
20:00 +25°C° 0 mm 3 m/s 763 mmHg 59%
21:00 +25°C° 0 mm 3 m/s 764 mmHg 61%
22:00 +24°C° 0 mm 2 m/s 763 mmHg 63%
23:00 +24°C° 0 mm 2 m/s 763 mmHg 65%

18 Août, Mardi

Heure Température Précipitation Vent Pression Humidité
00:00 +23°C° 0 mm 2 m/s 763 mmHg 68%
01:00 +23°C° 0 mm 2 m/s 763 mmHg 68%
02:00 +23°C° 0 mm 2 m/s 762 mmHg 68%
03:00 +23°C° 0 mm 1 m/s 762 mmHg 68%
04:00 +23°C° 0 mm 1 m/s 762 mmHg 67%
05:00 +24°C° 0 mm 1 m/s 762 mmHg 65%
06:00 +24°C° 0 mm 1 m/s 762 mmHg 63%
07:00 +26°C° 0 mm 2 m/s 762 mmHg 58%
08:00 +27°C° 0 mm 2 m/s 762 mmHg 52%
09:00 +28°C° 0 mm 3 m/s 762 mmHg 47%
10:00 +29°C° 0 mm 3 m/s 761 mmHg 46%
11:00 +29°C° 0 mm 4 m/s 761 mmHg 44%
12:00 +30°C° 0 mm 4 m/s 760 mmHg 43%
13:00 +30°C° 0 mm 5 m/s 760 mmHg 44%
14:00 +29°C° 0 mm 5 m/s 759 mmHg 45%
15:00 +29°C° 0 mm 5 m/s 759 mmHg 46%
16:00 +29°C° 0 mm 5 m/s 759 mmHg 49%
17:00 +28°C° 0 mm 4 m/s 759 mmHg 52%
18:00 +27°C° 0 mm 4 m/s 759 mmHg 55%
19:00 +27°C° 0 mm 3 m/s 759 mmHg 57%
20:00 +26°C° 0 mm 3 m/s 759 mmHg 60%
21:00 +25°C° 0 mm 3 m/s 759 mmHg 62%
22:00 +25°C° 0 mm 2 m/s 759 mmHg 64%
23:00 +25°C° 0 mm 2 m/s 759 mmHg 66%
Voir plus